STARLINK-1173 (45084 NORAD) Tracking and Keplerian Element Data

This shows tracking and keplerian element data for the satellite.

Feedback or suggestion? Click here.




ElementValue
Catalog45084
NameSTARLINK-1173
Epoch Orbit966
Epoch Day87.91667824
Epoch Year2020
RAAN304.8988
Inclination53.001
Eccentricity0.0001399
Argument of Perigee57.5662
Mean Anonmoly323.3205
Mean Motion15.62750029
Decay Rate-1.407E-05
L11 45084U 20006AS 20087.91667824 -.00001407 00000-0 -95361-5 0 9992
L22 45084 53.0010 304.8988 0001399 57.5662 323.3205 15.62750029 9661

Live tracking and technical data element details for STARLINK-1173 (NORAD 45084). STARLINK-1173 can be tracked NOW for your location showing map with azimuth and elevation plus other details from your city location.

Track the satellite on the map from your city or location and see movement details for azimuth, elevation, latitude, longitude, range, height, and movement on the map or in text.







IsCatalogInMostPopularTable: catalog: 45084, numindb: 10
Update: records affected: 1



GetName: 45084 STARLINK-1173

Hit Count: updated at: Mon, 30 Mar 2020 12:48:30 GMT